www.pogodaiklimat.ru

Погода и климат >> Архив погоды >> Австралия >> Victoria River Downs


ПОГОДА в Victoria River Downs

  • Прогноз погоды в Victoria River Downs
  • Монитор погоды в Victoria River Downs
  • Климат города

АРХИВ ПОГОДЫ в Victoria River Downs

Время (UTC), дата Ветер
(напр.,м/с)
 
Видим.   Явления Облачность Т
(С)
Тd
(С)
f
(%)
Тe
(С)
Тes
(С)
Комфортность P
(гПа)
Po
(гПа)
Тmin
(С)
Tmax
(С)
R
(мм)
R24
(мм)
S
(см)
23 9.07 Ю 3 35 км 3/0
[Ac trans]
+19.7 -3.2 21 +20 +21 1018.8 1008.2
02 10.07 ЮВ 4 н/о н/о +24.5 -4.7 14 +22 +22 комфорт 1017.5 1006.9 +9.3
05 10.07 В 3 н/о н/о +27.7 -2.2 14 +25 +25 комфорт 1013.8 1003.3
08 10.07 ЮВ 3 н/о н/о +26.7 +0.4 18 +25 +25 комфорт 1013.7 1003.2
11 10.07 Ю 2 н/о н/о +18.2 +2.5 35 +19 +19 1016.0 1005.4
14 10.07 Ю 2 н/о н/о +13.8 -2.2 33 +14 +14 1016.5 1005.9 +28.8
17 10.07 ЮЗ 2 н/о н/о +11.5 0.0 45 +11 +11 1016.5 1005.9
20 10.07 З 3 н/о н/о +10.2 -0.6 47 +9 +9 1017.4 1006.8
23 10.07 ЮВ 2 н/о н/о +17.2 -2.4 26 +18 +18 1019.0 1008.4
02 11.07 ЮВ 4 н/о н/о +24.8 -5.5 13 +23 +23 комфорт 1017.9 1007.3 +8.7
05 11.07 ЮВ 3 н/о н/о +28.3 -1.7 14 +26 +26 жарко 1013.9 1003.4
08 11.07 Ю 3 н/о н/о +26.6 -3.1 14 +24 +24 комфорт 1013.4 1002.9
11 11.07 штиль 0 н/о н/о +15.2 -0.9 33 +15 +15 1015.2 1004.7
14 11.07 Ю 1 н/о н/о +11.0 -0.2 46 +12 +12 1015.8 1005.2 +29.0
17 11.07 СЗ 2 н/о н/о +10.8 -1.9 41 +10 +10 1015.7 1005.1
20 11.07 З 2 н/о н/о +8.2 -2.4 47 +7 +7 1016.2 1005.6
23 11.07 ЮЗ 3 35 км ясно +16.0 -3.0 27 +16 +18 1017.9 1007.3
02 12.07 ЮЗ 2 н/о н/о +24.4 -4.8 14 +22 +22 комфорт 1016.7 1006.1 +7.8
05 12.07 В 3 н/о н/о +28.6 -6.0 10 +25 +25 комфорт 1012.7 1002.2
08 12.07 Ю 3 н/о н/о +27.0 -4.8 12 +24 +24 комфорт 1012.3 1001.8
11 12.07 Ю 1 н/о н/о +14.3 -2.6 31 +16 +16 1014.2 1003.7
14 12.07 Ю 3 н/о н/о +16.9 -3.2 25 +17 +17 1014.7 1004.2 +29.4
17 12.07 З 2 н/о н/о +11.2 -2.9 37 +10 +10 1014.8 1004.3
20 12.07 С 2 н/о н/о +8.8 -1.3 49 +7 +7 1015.8 1005.2
23 12.07 С 1 30 км ясно +17.0 -0.7 30 +19 +21 1016.9 1006.3
02 13.07 В 4 н/о н/о +24.3 -4.9 14 +22 +22 комфорт 1015.9 1005.3 +7.5
05 13.07 СВ 4 н/о н/о +28.7 -2.4 13 +26 +26 жарко 1012.5 1002.0
08 13.07 ЮВ 3 н/о н/о +27.0 -2.7 14 +24 +24 комфорт 1012.1 1001.6
11 13.07 ЮВ 2 н/о н/о +15.9 +0.1 34 +16 +16 1013.9 1003.4
14 13.07 ЮВ 1 н/о н/о +13.0 -1.3 37 +14 +14 1014.7 1004.2 +29.2
17 13.07 Ю 2 н/о н/о +9.0 -2.9 43 +8 +8 1014.6 1004.1
20 13.07 З 2 н/о н/о +9.7 -2.9 41 +9 +9 1015.5 1004.9
23 13.07 Ю 3 35 км ясно +17.7 -3.1 24 +18 +19 1016.6 1006.0
02 14.07 ЮВ 3 н/о н/о +25.1 -4.2 14 +23 +23 комфорт 1015.1 1004.6 +8.0
05 14.07 СВ 2 н/о н/о +28.8 -2.3 13 +26 +26 жарко 1011.2 1000.7
08 14.07 ЮВ 1 н/о н/о +27.7 -1.3 15 +25 +25 комфорт 1011.1 1000.6
11 14.07 З 2 н/о н/о +16.5 +2.2 38 +17 +17 1012.8 1002.3
14 14.07 З 2 н/о н/о +12.0 -1.5 39 +11 +11 1013.3 1002.8 +30.1
17 14.07 З 2 н/о н/о +11.8 -1.7 39 +12 +12 1013.0 1002.5
20 14.07 штиль 0 н/о н/о +8.0 -2.3 48 +8 +8 1013.6 1003.1
23 14.07 ЮВ 1 н/о н/о +16.6 -1.5 29 +18 +18 1015.6 1005.0
02 15.07 СВ 4 н/о н/о +26.9 -0.2 17 +25 +25 комфорт 1014.5 1004.0 +6.7
05 15.07 В 2 н/о н/о +30.1 -1.3 13 +27 +27 жарко 1011.6 1001.1
08 15.07 Ю 2 н/о н/о +28.4 -2.6 13 +26 +26 жарко 1011.5 1001.0
11 15.07 штиль 0 н/о н/о +16.1 -1.5 30 +16 +16 1013.3 1002.8
14 15.07 З 2 н/о н/о +12.1 -1.4 39 +12 +12 1013.3 1002.8 +30.6
17 15.07 З 2 н/о н/о +10.1 -1.0 46 +10 +10 1013.3 1002.8
20 15.07 З 2 н/о н/о +9.2 -1.8 46 +8 +8 1014.2 1003.7
23 15.07 штиль 0 30 км ясно +16.8 -0.4 31 +17 +19 1016.3 1005.7
02 16.07 В 3 н/о н/о +25.0 -3.4 15 +23 +23 комфорт 1015.8 1005.2 +7.5
05 16.07 ЮВ 3 н/о н/о +29.9 -3.7 11 +27 +27 жарко 1011.8 1001.3
08 16.07 ЮВ 2 н/о н/о +28.3 -3.8 12 +25 +25 комфорт 1011.0 1000.5
11 16.07 штиль 0 н/о н/о +14.5 -3.8 28 +15 +15 1013.2 1002.7

 

Местоположение метеостанции Victoria River Downs (Северная территория, Австралия): широта -16.40 долгота 131.02 высота над уровнем моря 90 м.

В архиве по умолчанию представлена погода в Victoria River Downs за последнюю неделю. Архивные данные за месяц целиком и за предыдущие месяцы, начиная с января 2011 года, Вы можете получить, выбрав интересующий диапазон дат из раскрывающегося списка и нажав кнопку "Ввод!".


*Определитесь, кто Вы:
робот инопланетянин человек

Внимание! Время в таблицах - всемирное. Для получения местного времени необходимо прибавить поправку, которая в Victoria River Downs равна 9.5 ч.

Смотрите также архив погоды в соседних городах и на ближайших метеорологических станциях:

Погода в Delamere Weapons Range (Северная территория, Австралия) (120 км)
Погода в Manbulloo Csiro (Северная территория, Австралия) (163 км)
Погода в Lajamanu (Северная территория, Австралия) (219 км)
Погода в Daly Waters Aws (Северная территория, Австралия) (251 км)
Погода в Tindal (Северная территория, Австралия) (255 км)
Погода в Kununurra (Западная Австралия, Австралия) (256 км)
Погода в Argyle Aero (Западная Австралия, Австралия) (275 км)
Погода в Cape Don Lighthouse (Северная территория, Австралия) (286 км)
Погода в Port Keats Aero (Северная территория, Австралия) (288 км)
Погода в Wyndham Aero (Западная Австралия, Австралия) (323 км)

Пояснения к столбцам:

Ветер - указаны скорость ветра в м/с - средняя за 10 мин, порывы в срок и между сроками (в фигурных скобках) и направление, откуда дует ветер: С - северный, СВ - северо-восточный, В - восточный, ЮВ - юго-восточный, Ю - южный, ЮЗ - юго-западный, З - западный, СЗ - северо-западный.
Видимость - горизонтальная дальность видимости в метрах или километрах. При видимости от 1 до 10 км при отсутствии осадков обычно наблюдается дымка, при ухудшении видимости до 1 км и менее - туман. В сухую погоду видимость может ухудшаться дымом, пылью или мглою.
Явления - указаны атмосферные явления, наблюдавшиеся в срок или в последний час перед сроком; фигурными скобками обозначены явления, наблюдавшиеся между сроками (за 1-3 часа до срока); квадратными скобками обозначены град или гололедные отложения с указанием их диаметра в мм.
Облачность - указаны через наклонную черту общая и нижняя облачность в баллах и высота нижней границы облаков в метрах; квадратными скобками обозначены формы облаков: Ci - перистые, Cs - перисто-слоистые, Cc - перисто-кучевые, Ac - высококучевые, As - высокослоистые, Sc - слоисто-кучевые, Ns - слоисто-дождевые, Cu - кучевые, Cb - кучево-дождевые. Подробнее классификацию облаков см. в Атласе облаков (PDF).
T - Температура воздуха - температура, измеренная на высоте 2 м над землей.
Td - Температура точки росы - температура, при понижении до которой содержащийся в воздухе водяной пар достигнет насыщения.
f - Относительная влажность воздуха - влажноcть воздуха, измеренная на высоте 2 м над землей.
Te - Эффективная температура - температура, которую ощущает одетый по сезону человек в тени. Характеристика душности погоды. При расчете учитывается влияние влажности воздуха и скорости ветра на теплоощущения человека.
Tes - Эффективная температура на солнце - температура, которую ощущает человек, с поправкой на солнечный нагрев. Характеристика знойности погоды. Зависит от высоты солнца над горизонтом, облачности и скорости ветра. Ночью, в пасмурную погоду, а также при ветре 12 м/с и более поправка равна нулю.
P - Атмосферное давление - приведенное к уровню моря атмосферное давление.
Po - Атмосферное давление - измеренное на уровне метеостанции атмосферное давление.
Tmin - Минимальная температура - минимум температуры воздуха на высоте 2 м над землей.
Tmax - Максимальная температура - максимум температуры воздуха на высоте 2 м над землей.
R - Количество осадков - Количество выпавших осадков за период времени, мм. При наведении курсора мыши на число - период времени, за который выпало указанное количество осадков.
R24 - Количество осадков - Количество выпавших осадков за 24 часа, мм.
S - Снежный покров - Высота снежного покрова, см. При наведении курсора мыши на число - состояние снежного покрова и степень покрытия местности в баллах.